Location: Kermapucano
(48.0667°N, 3.3000°W)
Time: 19:18:24
(UTC+00:00)

Cosmos 1898 Rocket - Pass Details

Date: 29 November 2020
Orbit: 754 x 783 km, 74.0° (Epoch: 27 January)

Event Time Altitude Azimuth Distance (km) Brightness Sun altitude
Rises 06:27:04 0° 225° (SW) 3,251 6.5 -11.8°
Reaches altitude 10° 06:29:35 10° 233° (SW) 2,331 5.7 -11.4°
Maximum altitude 06:34:32 39° 302° (WNW) 1,174 4.0 -10.6°
Drops below altitude 10° 06:39:31 10° 10° (N) 2,351 5.9 -9.8°
Sets 06:42:05 0° 19° (NNE) 3,283 6.7 -9.5°
